AOJ12 EDDM-LOWW

Flight info

Callsign AOJ12
Flight time 0h 55m
Altitude 23000
Route KIRDI3S KIRDI DCT BUWOQ/N0442F270 DCT MASUR MASUR3W
Aircraft CL60/M-SBDE1E2E3FGHIJ1J4J5J7M3RWXYZ/LB1V1D1

Departure

Time 2026-05-06 19:07
Airport Munich Airport (EDDM)

Arrival

Time 2026-05-06 20:02
Airport Vienna International Airport (LOWW)
Time Latitude Longitude Altitude Speed Heading
2026-05-06 18:48 48.34703 11.77136 1484 ft 0 kts 263°
2026-05-06 19:02 48.34702 11.77124 1484 ft 4 kts 271°
2026-05-06 19:02 48.34733 11.77088 1484 ft 7 kts 353°
2026-05-06 19:02 48.34760 11.77085 1484 ft 6 kts 356°
2026-05-06 19:02 48.34783 11.77149 1484 ft 11 kts 85°
2026-05-06 19:03 48.34793 11.77277 1484 ft 11 kts 84°
2026-05-06 19:03 48.34753 11.77398 1483 ft 13 kts 169°
2026-05-06 19:03 48.34652 11.77422 1484 ft 14 kts 149°
2026-05-06 19:03 48.34638 11.77574 1483 ft 17 kts 82°
2026-05-06 19:04 48.34648 11.77709 1483 ft 21 kts 84°
2026-05-06 19:04 48.34666 11.77945 1482 ft 24 kts 83°
2026-05-06 19:04 48.34694 11.78309 1482 ft 27 kts 83°
2026-05-06 19:04 48.34718 11.78605 1481 ft 23 kts 84°
2026-05-06 19:05 48.34718 11.78697 1480 ft 13 kts 114°
2026-05-06 19:05 48.34627 11.78739 1480 ft 12 kts 175°
2026-05-06 19:05 48.34542 11.78685 1480 ft 15 kts 229°
2026-05-06 19:05 48.34500 11.78601 1481 ft 2 kts 232°
2026-05-06 19:06 48.34474 11.78549 1481 ft 14 kts 234°
2026-05-06 19:06 48.34408 11.78413 1482 ft 17 kts 233°
2026-05-06 19:06 48.34333 11.78266 1482 ft 20 kts 234°
2026-05-06 19:06 48.34287 11.77956 1483 ft 69 kts 264°
2026-05-06 19:07 48.34185 11.76665 1539 ft 166 kts 264°
2026-05-06 19:07 48.34047 11.74899 2503 ft 179 kts 265°
2026-05-06 19:07 48.33820 11.72982 3447 ft 209 kts 249°
2026-05-06 19:07 48.32880 11.71220 4119 ft 232 kts 210°
2026-05-06 19:08 48.31315 11.70686 4911 ft 235 kts 179°
2026-05-06 19:08 48.29657 11.70716 5338 ft 242 kts 174°
2026-05-06 19:08 48.28077 11.71472 5554 ft 239 kts 149°
2026-05-06 19:08 48.26642 11.72821 6178 ft 255 kts 145°
2026-05-06 19:09 48.25148 11.74358 7173 ft 269 kts 145°
2026-05-06 19:09 48.23601 11.75964 8235 ft 276 kts 147°
2026-05-06 19:09 48.22013 11.77582 9346 ft 279 kts 148°
2026-05-06 19:09 48.20437 11.79233 10440 ft 281 kts 143°
2026-05-06 19:10 48.19128 11.81423 11557 ft 292 kts 124°
2026-05-06 19:10 48.18397 11.84298 12682 ft 306 kts 102°
2026-05-06 19:10 48.18427 11.87474 13805 ft 317 kts 86°
2026-05-06 19:10 48.18676 11.90780 14987 ft 322 kts 87°
2026-05-06 19:11 48.18921 11.94173 15847 ft 335 kts 88°
2026-05-06 19:11 48.19168 11.97633 16596 ft 341 kts 88°
2026-05-06 19:11 48.19424 12.01226 17366 ft 344 kts 89°
2026-05-06 19:11 48.19677 12.04794 17977 ft 352 kts 89°
2026-05-06 19:12 48.19936 12.08511 18259 ft 360 kts 89°
2026-05-06 19:12 48.20196 12.12172 18885 ft 351 kts 89°
2026-05-06 19:12 48.20451 12.15810 19645 ft 353 kts 89°
2026-05-06 19:12 48.20788 12.20704 20636 ft 363 kts 89°
2026-05-06 19:13 48.20962 12.23246 21020 ft 371 kts 89°
2026-05-06 19:13 48.21226 12.27114 21524 ft 376 kts 89°
2026-05-06 19:13 48.21495 12.31062 21987 ft 378 kts 89°
2026-05-06 19:13 48.21763 12.35001 22246 ft 381 kts 89°
2026-05-06 19:14 48.22033 12.38993 22503 ft 379 kts 89°
2026-05-06 19:14 48.22300 12.42964 22710 ft 380 kts 89°
2026-05-06 19:14 48.22564 12.46922 22729 ft 381 kts 89°
2026-05-06 19:14 48.22828 12.50898 22726 ft 381 kts 89°
2026-05-06 19:15 48.23091 12.54899 22720 ft 381 kts 90°
2026-05-06 19:15 48.23024 12.58776 22727 ft 378 kts 102°
2026-05-06 19:15 48.22628 12.62837 22717 ft 406 kts 103°
2026-05-06 19:15 48.22052 12.68790 22712 ft 438 kts 103°
2026-05-06 19:16 48.21761 12.71833 22713 ft 444 kts 103°
2026-05-06 19:16 48.21321 12.76456 22722 ft 444 kts 103°
2026-05-06 19:16 48.20889 12.81083 22714 ft 442 kts 102°
2026-05-06 19:16 48.20790 12.85734 22714 ft 446 kts 93°
2026-05-06 19:17 48.20872 12.90346 22711 ft 445 kts 93°
2026-05-06 19:17 48.20948 12.94983 22713 ft 445 kts 93°
2026-05-06 19:17 48.21021 12.99656 22709 ft 446 kts 93°
2026-05-06 19:17 48.21091 13.04330 22710 ft 447 kts 93°
2026-05-06 19:18 48.21158 13.09009 22717 ft 447 kts 93°
2026-05-06 19:18 48.21223 13.13653 22717 ft 447 kts 93°
2026-05-06 19:18 48.21286 13.18319 22718 ft 447 kts 93°
2026-05-06 19:18 48.21346 13.22970 22721 ft 447 kts 93°
2026-05-06 19:19 48.21404 13.27642 22715 ft 447 kts 93°
2026-05-06 19:19 48.21460 13.32301 22717 ft 447 kts 93°
2026-05-06 19:19 48.21204 13.36917 22729 ft 439 kts 106°
2026-05-06 19:19 48.20531 13.41405 22720 ft 438 kts 108°
2026-05-06 19:20 48.19865 13.45827 22718 ft 438 kts 107°
2026-05-06 19:20 48.19201 13.50265 22724 ft 439 kts 107°
2026-05-06 19:20 48.18530 13.54730 22729 ft 439 kts 107°
2026-05-06 19:20 48.17854 13.59216 22725 ft 439 kts 107°
2026-05-06 19:21 48.17188 13.63618 22725 ft 439 kts 107°
2026-05-06 19:21 48.16506 13.68121 22717 ft 438 kts 108°
2026-05-06 19:21 48.15829 13.72573 22720 ft 438 kts 108°
2026-05-06 19:21 48.15147 13.77045 22725 ft 438 kts 108°
2026-05-06 19:22 48.14465 13.81503 22724 ft 438 kts 108°
2026-05-06 19:22 48.13775 13.85998 22731 ft 438 kts 108°
2026-05-06 19:22 48.13096 13.90412 22718 ft 438 kts 108°
2026-05-06 19:22 48.12408 13.94873 22733 ft 438 kts 108°
2026-05-06 19:23 48.11711 13.99372 22725 ft 438 kts 108°
2026-05-06 19:23 48.11024 14.03805 22733 ft 438 kts 108°
2026-05-06 19:23 48.10329 14.08262 22729 ft 438 kts 108°
2026-05-06 19:23 48.09636 14.12706 22728 ft 438 kts 108°
2026-05-06 19:24 48.08929 14.17219 22727 ft 439 kts 108°
2026-05-06 19:24 48.08239 14.21615 22731 ft 439 kts 108°
2026-05-06 19:24 48.07536 14.26089 22723 ft 438 kts 108°
2026-05-06 19:24 48.06843 14.30480 22730 ft 439 kts 108°
2026-05-06 19:25 48.06128 14.35003 22723 ft 439 kts 108°
2026-05-06 19:25 48.05426 14.39429 22728 ft 438 kts 108°
2026-05-06 19:25 48.04720 14.43870 22740 ft 438 kts 108°
2026-05-06 19:25 48.04008 14.48325 22729 ft 438 kts 108°
2026-05-06 19:26 48.03297 14.52774 22728 ft 438 kts 108°
2026-05-06 19:26 48.02586 14.57204 22726 ft 438 kts 108°
2026-05-06 19:26 48.01868 14.61669 22730 ft 438 kts 108°
2026-05-06 19:26 48.01155 14.66092 22725 ft 438 kts 109°
2026-05-06 19:27 48.00438 14.70531 22723 ft 437 kts 108°
2026-05-06 19:27 47.99718 14.74977 22700 ft 437 kts 108°
2026-05-06 19:27 47.98994 14.79426 22485 ft 438 kts 108°
2026-05-06 19:27 47.98273 14.83855 22237 ft 435 kts 108°
2026-05-06 19:28 47.97558 14.88240 21980 ft 432 kts 108°
2026-05-06 19:28 47.96849 14.92570 21730 ft 430 kts 108°
2026-05-06 19:28 47.96133 14.96925 21263 ft 431 kts 108°
2026-05-06 19:28 47.95427 15.01217 20780 ft 425 kts 108°
2026-05-06 19:29 47.94724 15.05478 20298 ft 422 kts 108°
2026-05-06 19:29 47.94027 15.09690 19820 ft 419 kts 108°
2026-05-06 19:29 47.93334 15.13867 19316 ft 415 kts 108°
2026-05-06 19:29 47.92638 15.18056 18836 ft 412 kts 108°
2026-05-06 19:30 47.91956 15.22147 18362 ft 409 kts 108°
2026-05-06 19:30 47.91273 15.26227 17873 ft 406 kts 108°
2026-05-06 19:30 47.90596 15.30269 17395 ft 403 kts 108°
2026-05-06 19:30 47.89931 15.34268 16951 ft 400 kts 106°
2026-05-06 19:31 47.89611 15.38458 16786 ft 403 kts 95°
2026-05-06 19:31 47.89542 15.42610 16786 ft 403 kts 94°
2026-05-06 19:31 47.89024 15.50868 16752 ft 399 kts 107°
2026-05-06 19:32 47.88347 15.54900 16511 ft 399 kts 107°
2026-05-06 19:32 47.87687 15.58848 16247 ft 396 kts 107°
2026-05-06 19:32 47.87017 15.62846 16007 ft 394 kts 107°
2026-05-06 19:32 47.86372 15.66692 15756 ft 393 kts 108°
2026-05-06 19:33 47.85708 15.70641 15504 ft 390 kts 108°
2026-05-06 19:33 47.85055 15.74515 15255 ft 389 kts 108°
2026-05-06 19:33 47.84404 15.78371 14993 ft 383 kts 108°
2026-05-06 19:33 47.83770 15.82134 14770 ft 366 kts 108°
2026-05-06 19:34 47.83161 15.85743 14530 ft 351 kts 108°
2026-05-06 19:34 47.82574 15.89202 14292 ft 346 kts 108°
2026-05-06 19:34 47.81986 15.92652 14049 ft 345 kts 108°
2026-05-06 19:34 47.81391 15.96137 13787 ft 344 kts 108°
2026-05-06 19:35 47.80804 15.99565 13548 ft 343 kts 108°
2026-05-06 19:35 47.80225 16.02949 13304 ft 341 kts 108°
2026-05-06 19:35 47.79639 16.06359 13056 ft 340 kts 108°
2026-05-06 19:35 47.79054 16.09760 12802 ft 339 kts 108°
2026-05-06 19:36 47.78472 16.13141 12555 ft 337 kts 108°
2026-05-06 19:36 47.77892 16.16500 12310 ft 336 kts 108°
2026-05-06 19:36 47.77343 16.19873 12052 ft 336 kts 103°
2026-05-06 19:36 47.77297 16.23358 11796 ft 340 kts 84°
2026-05-06 19:37 47.77992 16.26671 11751 ft 343 kts 65°
2026-05-06 19:37 47.79174 16.29802 11604 ft 347 kts 61°
2026-05-06 19:37 47.80397 16.32906 11349 ft 345 kts 61°
2026-05-06 19:37 47.81595 16.35963 11084 ft 343 kts 61°
2026-05-06 19:38 47.82794 16.39027 10842 ft 342 kts 61°
2026-05-06 19:38 47.83990 16.42086 10607 ft 340 kts 61°
2026-05-06 19:38 47.85164 16.45094 10356 ft 340 kts 61°
2026-05-06 19:38 47.86350 16.48133 10099 ft 338 kts 61°
2026-05-06 19:39 47.87530 16.51164 9960 ft 336 kts 61°
2026-05-06 19:39 47.88700 16.54173 9958 ft 337 kts 61°
2026-05-06 19:39 47.89852 16.57137 9976 ft 324 kts 61°
2026-05-06 19:39 47.90950 16.59962 9997 ft 304 kts 62°
2026-05-06 19:40 47.91988 16.62634 9988 ft 287 kts 61°
2026-05-06 19:40 47.92909 16.65009 9984 ft 280 kts 63°
2026-05-06 19:40 47.93896 16.67562 9981 ft 280 kts 63°
2026-05-06 19:40 47.94873 16.70082 9974 ft 280 kts 63°
2026-05-06 19:41 47.95851 16.72601 9987 ft 281 kts 62°
2026-05-06 19:41 47.96827 16.75119 9986 ft 280 kts 62°
2026-05-06 19:41 47.97798 16.77608 9986 ft 281 kts 62°
2026-05-06 19:41 47.98782 16.80122 9996 ft 281 kts 62°
2026-05-06 19:42 47.99766 16.82649 9993 ft 281 kts 62°
2026-05-06 19:42 48.00752 16.85171 9986 ft 282 kts 62°
2026-05-06 19:42 48.01754 16.87709 9998 ft 282 kts 60°
2026-05-06 19:42 48.03076 16.89846 10000 ft 284 kts 36°
2026-05-06 19:43 48.04829 16.91157 9989 ft 282 kts 15°
2026-05-06 19:43 48.06742 16.91556 10000 ft 278 kts 355°
2026-05-06 19:43 48.08636 16.91027 9998 ft 272 kts 335°
2026-05-06 19:43 48.10260 16.89686 9995 ft 264 kts 316°
2026-05-06 19:44 48.11516 16.87744 10001 ft 258 kts 302°
2026-05-06 19:44 48.12597 16.85609 9990 ft 257 kts 301°
2026-05-06 19:44 48.13685 16.83460 9984 ft 257 kts 302°
2026-05-06 19:44 48.14770 16.81318 9994 ft 258 kts 301°
2026-05-06 19:45 48.15846 16.79190 9994 ft 258 kts 301°
2026-05-06 19:45 48.16943 16.77018 9818 ft 260 kts 302°
2026-05-06 19:45 48.18025 16.74875 9570 ft 258 kts 302°
2026-05-06 19:45 48.19092 16.72763 9325 ft 253 kts 302°
2026-05-06 19:46 48.20153 16.70660 9072 ft 249 kts 302°
2026-05-06 19:46 48.21185 16.68613 8818 ft 245 kts 302°
2026-05-06 19:46 48.22357 16.66754 8571 ft 247 kts 320°
2026-05-06 19:46 48.23931 16.65701 8324 ft 251 kts 341°
2026-05-06 19:47 48.25614 16.65010 8076 ft 253 kts 341°
2026-05-06 19:47 48.27317 16.64301 7826 ft 255 kts 341°
2026-05-06 19:47 48.29034 16.63584 7562 ft 254 kts 341°
2026-05-06 19:47 48.30745 16.62870 7315 ft 253 kts 341°
2026-05-06 19:48 48.32439 16.62159 7064 ft 253 kts 342°
2026-05-06 19:48 48.34127 16.61452 6811 ft 253 kts 342°
2026-05-06 19:48 48.35832 16.60736 6563 ft 253 kts 342°
2026-05-06 19:48 48.37513 16.60029 6326 ft 252 kts 342°
2026-05-06 19:49 48.39212 16.59313 6076 ft 252 kts 342°
2026-05-06 19:49 48.40881 16.58619 5975 ft 251 kts 345°
2026-05-06 19:49 48.42635 16.58563 5973 ft 252 kts 12°
2026-05-06 19:49 48.44334 16.59147 5980 ft 252 kts 15°
2026-05-06 19:50 48.46056 16.59791 5982 ft 253 kts 16°
2026-05-06 19:50 48.47759 16.60427 5975 ft 253 kts 15°
2026-05-06 19:50 48.49484 16.61075 5967 ft 253 kts 15°
2026-05-06 19:50 48.51188 16.61727 5976 ft 253 kts 16°
2026-05-06 19:51 48.52908 16.62377 5978 ft 253 kts 15°
2026-05-06 19:51 48.54640 16.62513 5974 ft 253 kts 351°
2026-05-06 19:51 48.56378 16.61944 5796 ft 256 kts 341°
2026-05-06 19:51 48.57832 16.60518 5544 ft 245 kts 305°
2026-05-06 19:52 48.58463 16.58294 5310 ft 227 kts 271°
2026-05-06 19:52 48.58550 16.55970 5073 ft 221 kts 266°
2026-05-06 19:52 48.58582 16.53684 4975 ft 209 kts 266°
2026-05-06 19:52 48.58576 16.51578 4988 ft 194 kts 255°
2026-05-06 19:53 48.57970 16.49881 4967 ft 181 kts 214°
2026-05-06 19:53 48.56940 16.48863 4979 ft 178 kts 206°
2026-05-06 19:53 48.55848 16.47939 4976 ft 179 kts 205°
2026-05-06 19:53 48.54751 16.47022 4970 ft 179 kts 206°
2026-05-06 19:54 48.53667 16.46113 4969 ft 180 kts 206°
2026-05-06 19:54 48.52567 16.45193 4970 ft 181 kts 206°
2026-05-06 19:54 48.51462 16.44276 4974 ft 180 kts 206°
2026-05-06 19:54 48.50357 16.43361 4978 ft 179 kts 206°
2026-05-06 19:55 48.49160 16.42511 4968 ft 209 kts 193°
2026-05-06 19:55 48.47580 16.42598 4955 ft 248 kts 166°
2026-05-06 19:55 48.45884 16.43355 4956 ft 258 kts 166°
2026-05-06 19:55 48.44144 16.44087 4958 ft 261 kts 165°
2026-05-06 19:56 48.42399 16.44846 4966 ft 261 kts 166°
2026-05-06 19:56 48.40632 16.45605 4976 ft 262 kts 166°
2026-05-06 19:56 48.38887 16.46353 4979 ft 261 kts 165°
2026-05-06 19:56 48.37134 16.47105 4976 ft 262 kts 166°
2026-05-06 19:57 48.35406 16.47845 4982 ft 249 kts 166°
2026-05-06 19:57 48.33788 16.48537 4794 ft 238 kts 166°
2026-05-06 19:57 48.32230 16.49202 4531 ft 230 kts 166°
2026-05-06 19:57 48.30717 16.49848 4246 ft 223 kts 166°
2026-05-06 19:58 48.29266 16.50467 3969 ft 206 kts 165°
2026-05-06 19:58 48.27941 16.51032 3721 ft 190 kts 165°
2026-05-06 19:58 48.26724 16.51550 3484 ft 178 kts 165°
2026-05-06 19:58 48.25596 16.52031 3266 ft 171 kts 165°
2026-05-06 19:59 48.24453 16.52517 3043 ft 171 kts 166°
2026-05-06 19:59 48.23302 16.53005 2820 ft 170 kts 166°
2026-05-06 19:59 48.22167 16.53489 2608 ft 169 kts 166°
2026-05-06 19:59 48.21057 16.53961 2382 ft 162 kts 166°
2026-05-06 20:00 48.20030 16.54398 2184 ft 147 kts 166°
2026-05-06 20:00 48.19047 16.54816 2017 ft 146 kts 166°
2026-05-06 20:00 48.18066 16.55231 1825 ft 146 kts 166°
2026-05-06 20:00 48.17088 16.55645 1633 ft 144 kts 165°
2026-05-06 20:01 48.16133 16.56051 1473 ft 131 kts 166°
2026-05-06 20:01 48.15299 16.56406 1307 ft 119 kts 166°
2026-05-06 20:01 48.14534 16.56737 1126 ft 109 kts 165°
2026-05-06 20:01 48.13812 16.57051 971 ft 110 kts 165°
2026-05-06 20:02 48.13077 16.57357 854 ft 110 kts 165°
2026-05-06 20:02 48.12336 16.57669 713 ft 110 kts 164°
2026-05-06 20:02 48.11607 16.57971 607 ft 102 kts 163°
2026-05-06 20:02 48.11287 16.58110 607 ft 23 kts 165°
2026-05-06 20:03 48.11157 16.58160 607 ft 12 kts 179°
2026-05-06 20:03 48.11081 16.58106 607 ft 8 kts 237°
2026-05-06 20:03 48.11063 16.58019 607 ft 8 kts 265°
2026-05-06 20:03 48.11074 16.57971 607 ft 0 kts 297°
2026-05-06 20:04 48.11081 16.57950 607 ft 7 kts 295°
2026-05-06 20:04 48.11107 16.57870 607 ft 5 kts 296°
2026-05-06 20:04 48.11119 16.57832 607 ft 1 kts 296°
2026-05-06 20:04 48.11148 16.57743 607 ft 15 kts 296°
2026-05-06 20:05 48.11165 16.57623 607 ft 10 kts 236°
2026-05-06 20:05 48.11131 16.57516 607 ft 14 kts 289°
2026-05-06 20:05 48.11179 16.57362 607 ft 18 kts 297°
2026-05-06 20:05 48.11250 16.57147 607 ft 25 kts 296°
2026-05-06 20:06 48.11291 16.57022 607 ft 2 kts 296°
2026-05-06 20:06 48.11306 16.56974 607 ft 6 kts 296°
2026-05-06 20:06 48.11308 16.56972 607 ft 0 kts 296°
2026-05-06 20:06 48.11308 16.56971 607 ft 0 kts 296°
2026-05-06 20:07 48.11336 16.56882 607 ft 18 kts 295°
2026-05-06 20:07 48.11400 16.56687 607 ft 22 kts 296°
2026-05-06 20:07 48.11475 16.56456 607 ft 26 kts 296°
2026-05-06 20:07 48.11564 16.56183 607 ft 32 kts 296°
2026-05-06 20:08 48.11673 16.55849 607 ft 39 kts 297°
2026-05-06 20:08 48.11797 16.55468 607 ft 42 kts 296°
2026-05-06 20:08 48.11929 16.55061 607 ft 44 kts 296°
2026-05-06 20:08 48.12069 16.54630 607 ft 47 kts 296°
2026-05-06 20:09 48.12217 16.54176 607 ft 49 kts 297°
2026-05-06 20:09 48.12349 16.53775 607 ft 29 kts 296°
2026-05-06 20:09 48.12410 16.53627 607 ft 12 kts 350°
2026-05-06 20:09 48.12507 16.53627 607 ft 15 kts
2026-05-06 20:10 48.12616 16.53701 607 ft 20 kts 22°
2026-05-06 20:10 48.12728 16.53781 607 ft 18 kts 26°
2026-05-06 20:10 48.12835 16.53856 607 ft 9 kts 54°
2026-05-06 20:10 48.12834 16.53901 607 ft 0 kts 116°